sat.trackr.live / text

‹ back to catalog

STARLINK-5750

NORAD 55594 · 2023-020AB

PAYLOAD ACTIVE UNKNOWN

§ Identity

Operator
Country
US
Launch date
2023-02-12
Launch site
AFETR
Launch vehicle
Mass (kg)
RCS (m²)

Purposes: comms

External: N2YO · Heavens-Above · Gunter

§ Orbital elements

Epoch: 2026-05-25T02:41:42.681984Z

Period
94.27 min
Inclination
43.0034°
Eccentricity
0.0001213
Mean motion
15.27577618 rev/d
Perigee alt
482.2 km
Apogee alt
483.9 km
Semi-major
6,861.2 km
B*
1.6811e-5
RAAN
293.3506°
Arg perigee
269.8190°
Mean anomaly
90.2523°
Rev number
18,060

§ Raw data

STARLINK-57501 55594U 23020AB  26145.11229956  .00000200  00000+0  16811-4 0  99902 55594  43.0034 293.3506 0001213 269.8190  90.2523 15.27577618180609

JSON: /api/v1/satellites/55594 · /tle

For live sub-satellite position, see the globe view (requires WebGL).

§ Visibility from observer

Set your observer location to see the next 7 days of passes ≥ 10°. The values pass through the URL so the page stays shareable.

No JS? Fill the form by hand. The geolocation button needs JavaScript.